This is the latest recevied weather packets stored in our database for station/object KA3RQR. If no packets are shown the sender has not sent any weather packets the latest 10 day(s).
| Time | Temp. | Humidity | Pressure | Rain* | Wind** | Luminosity | Snow |
|---|---|---|---|---|---|---|---|
| 1778078918 | 15.56° C | 99% | 1010.4 hPa | 1.27 mm | - | 52 W/m² | - |
| 1778078614 | 15° C | 99% | 1010.5 hPa | 1.78 mm | - | 61 W/m² | - |
| 1778078313 | 15° C | 99% | 1010.5 hPa | 1.78 mm | - | 83 W/m² | - |
| 1778078010 | 15° C | 99% | 1010.5 hPa | 0 mm | - | 61 W/m² | - |
| 1778077708 | 15.56° C | 99% | 1010.4 hPa | 0 mm | - | 52 W/m² | - |
| 1778077405 | 15° C | 99% | 1010.7 hPa | 0 mm | - | 65 W/m² | - |
| 1778077104 | 15° C | 99% | 1010.2 hPa | 1.27 mm | - | 48 W/m² | - |
| 1778076802 | 15° C | 99% | 1010.4 hPa | 0 mm | - | 61 W/m² | - |
| 1778076499 | 15° C | 99% | 1010.5 hPa | 1.78 mm | - | 48 W/m² | - |
| 1778076196 | 15° C | 99% | 1010.4 hPa | 1.78 mm | - | 28 W/m² | - |
| 1778075893 | 15° C | 99% | 1010.3 hPa | 1.27 mm | - | 28 W/m² | - |
| 1778075589 | 15° C | 99% | 1010.3 hPa | 4.32 mm | - | 25 W/m² | - |
| 1778075286 | 15° C | 99% | 1010.3 hPa | 6.1 mm | - | 18 W/m² | - |
| 1778074982 | 15° C | 99% | 1010.5 hPa | 4.83 mm | - | 18 W/m² | - |
| 1778074679 | 15.56° C | 99% | 1010.3 hPa | 4.83 mm | - | 33 W/m² | - |
| 1778074376 | 15.56° C | 99% | 1010.7 hPa | 4.83 mm | - | 31 W/m² | - |
| 1778074073 | 15.56° C | 99% | 1010.8 hPa | 4.83 mm | - | 18 W/m² | - |
| 1778073770 | 15.56° C | 98% | 1011 hPa | 4.32 mm | - | 14 W/m² | - |
| 1778073468 | 15.56° C | 98% | 1011 hPa | 7.11 mm | - | 22 W/m² | - |
| 1778073164 | 15.56° C | 98% | 1011 hPa | 7.87 mm | - | 17 W/m² | - |
| 1778072861 | 15.56° C | 98% | 1011.1 hPa | 3.05 mm | - | 16 W/m² | - |
| 1778072558 | 15.56° C | 97% | 1011 hPa | 1.27 mm | - | 12 W/m² | - |
| 1778072256 | 15.56° C | 97% | 1010.8 hPa | 0 mm | - | 19 W/m² | - |
| 1778071953 | 15.56° C | 97% | 1010.8 hPa | 0 mm | - | 28 W/m² | - |
| 1778071652 | 15.56° C | 97% | 1010.3 hPa | 0 mm | - | 25 W/m² | - |
* Rain latest hour (hover to see other rain measurements)
** Current wind speed in m/s (hover to see current wind gust speed)